Location: Aase
(55.3695°N, 11.6953°E)
Time: 00:22:03
(UTC+00:00)

Daily predictions for brighter satellites

Satellite Brightness Start Highest point End
(mag) Time Altitude Azimuth Time Altitude Azimuth Time Altitude Azimuth
Cosmos 968 Rocket 4.3 00:04:07 10° NNW 00:08:20 49° NNE 00:08:20 49° NNE
Cosmos 2074 Rocket 4.4 00:05:50 10° NNW 00:10:58 54° NW 00:10:58 54° NW
SL-16 R/B 2.7 00:12:20 67° ENE 00:12:29 67° ENE 00:18:36 10° NNW
Cosmos 2341 Rocket 4.3 00:06:24 10° N 00:12:44 60° ENE 00:13:04 59° E
Cosmos 1943 Rocket 2.9 00:17:16 46° NNW 00:17:16 46° NNW 00:22:15 10° NNE
COSMOS 2455 4.0 00:18:59 32° WNW 00:20:30 37° NNW 00:26:07 10° NE
Cosmos 1656 Rocket 4.1 00:21:42 58° NNE 00:21:42 58° NNE 00:26:10 10° NNE
CZ-2D R/B 3.3 00:16:15 10° NNE 00:20:45 35° E 00:20:45 35° E
ATLAS 5 CENTAUR R/B 3.8 00:26:24 19° E 00:26:24 19° E 00:28:14 10° ENE
Cosmos 2297 Rocket 2.5 00:23:24 10° NNW 00:28:49 65° NE 00:28:49 65° NE
Resurs 1-4 Rocket 2.9 00:30:13 10° NNE 00:34:54 44° E 00:34:54 44° E
NOSS 3-1 (A) 4.3 00:32:15 10° NW 00:37:40 50° W 00:37:40 50° W
SL-19 R/B 4.5 00:34:56 10° NNE 00:39:25 59° ENE 00:39:25 59° ENE
Cosmos 1354 Rocket 4.5 00:35:33 10° NNW 00:40:35 58° NE 00:40:35 58° NE
Cosmos 2369 Rocket 2.8 00:41:05 47° NW 00:41:05 47° NW 00:46:28 10° NNE
Nadezhda 1 Rocket 3.9 00:42:42 79° NNW 00:42:42 79° NNW 00:48:31 10° N
Gbstr 26 Del rocket 4.4 00:44:53 68° S 00:45:03 68° S 00:52:52 10° E
SJ 16-02 4.5 00:45:45 10° N 00:48:02 14° NE 00:50:18 10° ENE
CZ-4C R/B 3.3 00:47:10 36° WNW 00:49:01 46° NNW 00:55:42 10° ENE
NOSS 2-2 (E) 4.4 00:48:13 10° NW 00:53:10 69° NE 01:00:03 10° ESE
Cosmos 1503 Rocket 4.4 00:48:56 10° NNW 00:53:12 59° N 00:53:12 59° N
USA 267 4.5 00:49:19 10° ENE 00:54:42 27° SE 00:54:57 26° SE
Helios 1B rocket 4.1 00:52:45 10° N 00:55:05 30° N 00:55:05 30° N
ATLAS 2AS CENTAUR R/B 3.9 00:50:59 10° WNW 00:58:33 46° N 01:05:42 10° ENE
Cosmos 2263 Rocket 4.1 00:54:11 10° NNW 00:59:03 28° NNE 01:03:55 10° E
NOSS 2-2 (D) 4.4 00:57:08 12° NW 01:01:37 67° NE 01:08:19 10° ESE
IRAS Rocket 4.3 01:04:30 72° NW 01:04:30 72° NW 01:09:39 10° NNW
Cosmos 2221 3.5 01:06:06 43° N 01:06:06 43° N 01:09:04 10° NNE
Cosmos 1818 4.4 01:05:33 39° ESE 01:05:33 39° ESE 01:10:22 10° NE
COBE Rocket 4.5 01:11:07 51° NW 01:11:07 51° NW 01:15:04 10° NNW
SL-8 Rocket 3.8 01:05:33 10° NNW 01:11:51 79° W 01:12:13 76° SW
Cosmos 1842 Rocket 4.4 01:20:45 45° NNW 01:20:45 45° NNW 01:24:06 10° N
Sich 1 3.8 01:15:50 10° N 01:18:55 46° N 01:18:55 46° N
Cosmos 2218 Rocket 3.9 01:16:48 10° NNW 01:23:13 78° W 01:24:06 66° SSW
Meteor 2-2 Rocket 4.1 01:23:00 79° SW 01:23:20 84° WNW 01:29:11 10° NNE
Cosmos 2366 rocket 3.9 01:19:24 10° NNW 01:25:42 77° W 01:26:34 66° SSW
Cosmos 2227 Rocket 2.3 01:20:29 10° NW 01:25:13 59° WNW 01:25:13 59° WNW
Cosmos 292 Rocket 4.0 01:26:39 61° NNW 01:26:39 61° NNW 01:30:56 10° NNE
Cosmos 1777 Rocket 4.5 01:21:18 10° NNW 01:26:30 59° ENE 01:31:39 10° SE
PKM 4.4 01:28:41 81° W 01:28:56 89° SSW 01:32:34 10° E
Cosmos 1992 Rocket 4.3 01:30:28 54° SE 01:31:00 57° ESE 01:36:09 10° NNE
Cosmos 1656 4.3 01:30:38 40° SE 01:31:39 44° ESE 01:36:53 10° NE
Lacrosse 5 3.8 01:32:48 18° SE 01:33:12 18° SE 01:36:35 10° E
USA 234 3.1 01:27:02 10° SE 01:33:33 68° SSW 01:37:44 24° WNW
ADEOS II 2.4 01:32:04 10° NNE 01:37:18 61° ESE 01:38:28 48° SSE
Cosmos 2219 4.1 01:34:18 10° NW 01:37:44 33° WNW 01:37:44 33° WNW
CZ-4B R/B 3.7 01:34:51 10° NNE 01:39:54 66° ESE 01:40:48 55° SSE
Cosmos 405 4.2 01:42:57 41° ENE 01:42:57 41° ENE 01:45:38 10° NNE
Cosmos 864 Rocket 4.4 01:36:43 10° NNW 01:42:46 63° W 01:43:29 58° SW
NOSS 2-1 (C) 3.9 01:44:51 50° NNE 01:44:51 50° NNE 01:48:01 10° NE
Cosmos 1302 Rocket 4.1 01:44:28 59° WNW 01:44:46 60° WNW 01:49:59 10° NNE
NOSS 2-2 (C) 4.1 01:41:19 10° NW 01:46:24 82° SW 01:53:28 10° SE
SL-08 R/B 4.4 01:40:30 10° NNW 01:46:55 82° W 01:49:27 40° S
SL-08 R/B 3.2 01:47:13 61° SSE 01:48:03 83° ENE 01:52:43 10° NNW
Cosmos 220 Rocket 4.5 01:48:14 49° ESE 01:48:26 49° ESE 01:52:34 10° NE
Cosmos 1633 Rocket 3.0 01:44:37 10° N 01:48:58 85° ENE 01:48:58 85° ENE
NOSS 2-1 (D) 3.8 01:49:44 52° NNE 01:49:44 52° NNE 01:53:03 10° NE
Cosmos 2181 Rocket 3.9 01:47:57 56° SW 01:49:10 70° WNW 01:55:24 10° N
IDEFIX/ARIANE 42P 3.9 01:45:17 10° NNE 01:50:08 35° E 01:53:40 17° SSE
Cosmos 1666 Rocket 3.6 01:49:41 10° NNW 01:53:48 69° NW 01:53:48 69° NW
SL-16 R/B 3.5 01:57:26 30° WNW 01:57:26 30° WNW 02:01:59 10° NNW
Cosmos 1241 Rocket 4.4 01:54:48 51° SW 01:56:34 85° SE 02:03:04 10° NE
Cosmos 1606 2.8 01:59:13 71° NE 01:59:13 71° NE 02:02:44 10° NNE
ARIANE 5 R/B 3.2 01:54:20 10° NNE 01:59:20 49° E 02:01:51 27° SSE
ATLAS CENTAUR R/B 4.0 01:42:42 10° W 02:00:19 80° N 02:06:25 10° E
IRS-1D 3.5 01:55:03 10° NNE 02:00:27 86° WNW 02:01:47 53° SSW
CZ-2D R/B 2.4 01:56:15 10° N 02:01:24 49° WNW 02:02:04 46° W
Cosmos 1151 Rocket 3.6 02:00:38 40° SE 02:01:49 54° E 02:06:05 10° NNE
AQUA 3.9 01:57:07 10° N 02:01:50 59° WNW 02:02:08 57° W
Cosmos 1943 Rocket 4.1 01:58:47 13° WNW 02:01:59 20° NNW 02:06:03 10° NNE
NPP 3.9 02:02:17 10° N 02:07:31 52° WNW 02:08:28 46° W
ATLAS 5 CENTAUR R/B 1.6 02:07:56 63° W 02:08:31 72° NW 02:13:31 10° NE
CBERS-1 3.9 02:07:32 10° NNE 02:12:40 75° WNW 02:13:59 50° SW
Cosmos 2297 Rocket 3.5 02:07:53 10° NW 02:10:32 23° WNW 02:10:32 23° WNW
CZ-4C R/B 4.3 02:09:30 10° SE 02:12:55 42° ENE 02:16:19 10° N
Genesis I 3.2 02:12:59 68° NW 02:13:00 68° NW 02:16:53 10° NE
Resurs 1-4 Rocket 2.7 02:10:14 10° N 02:15:06 39° WNW 02:15:58 36° W
Cosmos 2082 3.8 02:11:50 10° NW 02:17:20 53° WSW 02:20:24 26° S
Cosmos 1933 3.3 02:18:15 56° S 02:19:04 82° E 02:23:10 10° NNE
USA 305 4.5 02:22:42 22° SSE 02:23:29 24° SE 02:26:54 10° E
Cosmos 2369 Rocket 4.1 02:22:52 12° WNW 02:26:25 20° NNW 02:30:37 10° NNE
CZ-2D R/B 4.0 02:22:23 10° NNE 02:26:31 58° ESE 02:28:45 26° S
NOSS 3-4 (A) 4.2 02:20:03 10° NW 02:26:36 61° NNE 02:33:55 10° ESE
NOSS 3-4 (C) 4.2 02:20:09 10° NW 02:26:42 61° NNE 02:34:00 10° ESE
USA 306 4.4 02:26:37 23° SSE 02:27:31 25° SE 02:31:00 10° E
SJ 16-02 2.2 02:23:20 10° NNW 02:27:40 52° ENE 02:31:58 10° SE
Meteor 1-26 Rocket 4.5 02:24:04 18° S 02:28:02 63° E 02:33:24 10° NNE
Meteor 1-25 Rocket 4.2 02:23:16 10° NNW 02:29:02 63° W 02:33:00 20° S
Meteor 1-28 Rocket 4.4 02:31:33 28° NW 02:31:33 28° NW 02:33:44 10° NNW
Cosmos 405 Rocket 4.2 02:28:00 10° NNW 02:30:08 24° NW 02:30:08 24° NW
Gbstr 26 Del rocket 4.5 02:27:26 26° W 02:32:20 63° SSW 02:39:44 10° ESE
ASTEX 1 3.5 02:27:29 10° N 02:32:31 76° E 02:36:22 17° S
IRS-P3 4.1 02:27:37 10° NNE 02:32:59 76° WNW 02:35:28 33° SSW
Cosmos 389 Rocket 3.8 02:32:18 19° SSE 02:34:24 39° E 02:37:46 10° NNE
Cosmos 1697 Rocket 2.8 02:32:33 27° SSW 02:35:37 70° ESE 02:41:14 10° NE
CZ-2C R/B 4.3 02:31:55 10° NNE 02:36:26 31° E 02:40:59 10° SSE
USA 267 3.4 02:32:05 10° ENE 02:38:36 64° SSE 02:42:17 27° SW
H-2A R/B 2.2 02:34:20 10° SSE 02:38:43 78° ENE 02:43:14 10° NNW
CZ-4C R/B 3.6 02:32:52 10° WNW 02:38:50 45° NNE 02:46:01 10° E
Cosmos 1980 Rocket 3.1 02:35:19 15° S 02:39:49 46° ESE 02:45:13 10° NE
NOSS 2-1 (E) 4.1 02:40:33 31° WNW 02:41:38 39° NNW 02:45:42 10° NE
Cosmos 1602 3.6 02:38:16 10° NNW 02:42:05 62° W 02:43:13 41° SSW
ERS-2 3.0 02:38:32 10° SE 02:42:05 50° ENE 02:45:40 10° N
Iridium 2 4.1 02:39:48 19° SSE 02:42:21 60° E 02:46:04 10° NNE
ERS-1 4.4 02:37:34 10° NNE 02:42:42 81° WNW 02:45:42 26° SSW
Cosmos 2221 4.4 02:42:57 15° WNW 02:43:00 15° WNW 02:45:36 10° NNW
Cosmos 2263 Rocket 2.2 02:38:04 10° NNW 02:43:45 86° ENE 02:49:27 10° SE
Meteor 1-14 Rocket 4.1 02:40:10 10° NNW 02:45:51 76° W 02:51:24 10° S
SL-8 R/B 4.5 02:46:01 31° SSW 02:46:29 31° SSW 02:50:41 10° SE
Helios 1B 4.4 02:44:03 10° S 02:48:22 72° WSW 02:52:43 10° NNW
Cosmos 1818 3.7 02:46:11 31° WSW 02:48:45 63° NW 02:54:12 10° NE
Cosmos 1844 Rocket 4.3 02:45:06 10° NNW 02:50:18 36° NE 02:55:30 10° ESE
ATLAS 2AS CENTAUR R/B 3.3 02:42:58 10° NW 02:50:43 66° NNE 02:57:54 10° ESE
Cosmos 1821 Rocket 4.3 02:46:13 10° NNW 02:52:12 46° W 02:56:29 18° SSW
SL-16 R/B 4.5 02:49:09 10° SSE 02:53:20 22° ESE 02:57:31 10° NE
Cosmos 1470 Rocket 3.9 02:49:35 10° NNW 02:53:47 43° W 02:55:25 30° SW
USA 307 4.1 02:52:25 23° SSW 02:54:10 32° SSE 02:57:59 10° E
Cosmos 2227 4.1 02:49:01 10° NW 02:54:43 79° WSW 03:00:21 10° SSE
Spot 4 Rocket 4.0 02:50:25 10° NNE 02:55:37 89° WNW 02:59:44 16° SSW
USA 308 4.0 02:55:23 23° SSW 02:57:15 33° SSE 03:01:06 10° E
Cosmos 1812 4.2 02:54:05 10° SSE 02:57:39 38° E 03:01:16 10° NNE
Cosmos 1500 3.2 02:55:01 10° NNW 02:58:55 86° E 03:02:45 10° SSE
Cosmos 1666 3.6 03:00:59 10° N 03:04:46 50° ENE 03:08:29 10° SSE
Meteor 1-5 Rocket 4.0 03:00:00 10° NNW 03:05:21 89° WSW 03:10:43 10° SSE
Landsat 5 3.6 03:02:22 10° S 03:06:52 62° WSW 03:11:19 10° NNW
Cosmos 1934 Rocket 4.0 03:01:27 10° NNW 03:07:21 55° W 03:13:14 10° SSW
Cosmos 2227 Rocket 4.1 03:06:03 10° WNW 03:06:57 12° WNW 03:06:57 12° WNW
IRIDIUM 104 4.4 03:04:16 10° N 03:09:31 80° E 03:14:45 10° S
Cosmos 1238 Rocket 4.1 03:03:01 10° NNW 03:09:33 60° W 03:15:46 10° S
Cosmos 1898 Rocket 3.6 03:07:11 10° NNW 03:12:27 84° ENE 03:17:44 10° SSE
Cosmos 1782 2.8 03:10:11 21° SSW 03:12:44 61° WNW 03:16:45 10° N
Cosmos 1656 4.1 03:12:05 22° WSW 03:15:19 47° NW 03:20:43 10° NNE
Lacrosse 5 2.3 03:12:00 20° SW 03:15:21 56° SSE 03:20:20 10° ENE
CZ-2C R/B 2.6 03:11:42 10° NNE 03:15:27 77° WNW 03:18:32 15° SSW
ADEOS II 3.1 03:12:11 10° N 03:16:44 30° WNW 03:19:24 20° WSW
USA 234 4.0 03:11:48 10° SSE 03:17:21 29° SW 03:22:58 10° WNW
CZ-4B R/B 1.9 03:14:19 10° SSE 03:17:26 59° ENE 03:20:40 10° N
ADEOS Rocket 3.1 03:10:44 10° SSE 03:17:30 89° ENE 03:23:35 10° NNW
Cosmos 1515 Rocket 3.7 03:15:08 18° SSW 03:18:18 56° WNW 03:22:42 10° N
IRIDIUM 114 4.3 03:13:25 10° N 03:18:41 88° W 03:23:55 10° S
USA 32 4.3 03:17:33 10° N 03:22:50 75° E 03:28:05 10° SSE
USA 276 3.4 03:21:38 22° SSW 03:22:53 29° S 03:25:44 10° ESE
Nadezhda 3 Rocket 4.4 03:18:39 17° SW 03:23:08 44° WNW 03:29:02 10° N
MSX 3.8 03:20:18 10° NNE 03:26:06 72° WNW 03:31:50 10° SSW
Cosmos 1356 4.2 03:23:16 10° NNW 03:26:20 30° W 03:28:27 16° SSW
Cosmos 972 Rocket 4.1 03:24:16 18° SW 03:27:48 53° WNW 03:32:42 10° NNE
IRIDIUM 103 4.3 03:22:35 10° N 03:27:49 76° W 03:33:02 10° S
Cosmos 44 3.8 03:24:49 10° SSW 03:29:05 53° SE 03:33:41 10° NE
IDEFIX/ARIANE 42P 2.9 03:24:49 10° N 03:29:54 49° WNW 03:34:28 13° SW
Cosmos 1605 Rocket 4.1 03:23:52 10° NNW 03:30:07 58° W 03:36:22 10° S
Meteor 1-11 Rocket 3.8 03:24:33 10° NNW 03:30:28 86° WSW 03:36:11 10° S
Cosmos 1933 Rocket 4.5 03:27:18 10° NNW 03:31:02 28° W 03:34:18 12° SW
Cosmos 921 Rocket 3.2 03:28:53 10° SSW 03:33:02 68° ESE 03:37:13 10° NNE
Cosmos 2278 3.7 03:28:10 12° SW 03:33:32 82° NW 03:39:18 10° NNE
CZ-3B R/B 2.8 03:32:06 19° WSW 03:34:40 80° SSE 03:46:53 10° E
Cosmos 2228 Rocket 3.0 03:32:04 10° SSW 03:36:25 67° WNW 03:40:51 10° N
Cosmos 1743 4.5 03:33:25 10° N 03:36:59 36° ENE 03:40:31 10° SE
ARIANE 5 R/B 3.3 03:33:42 10° N 03:38:20 35° WNW 03:42:11 14° WSW
SAR-Lupe-4 3.5 03:35:31 10° SSE 03:39:07 90° SW 03:42:45 10° NNW
Cosmos 1151 Rocket 4.3 03:37:30 16° WSW 03:39:43 24° WNW 03:43:16 10° N
CZ-2D R/B 4.1 03:37:47 10° NNW 03:40:20 14° NW 03:42:51 10° WNW
Cosmos 2369 3.9 03:36:41 14° SW 03:41:34 57° NW 03:47:15 10° NNE
Cosmos 1937 Rocket 3.4 03:36:24 10° NNW 03:41:36 81° WSW 03:46:43 10° SSE
ALOS 3.4 03:40:37 10° NNE 03:45:08 46° E 03:49:38 10° S
Cosmos 1733 Rocket 3.3 03:40:57 10° N 03:45:22 75° ENE 03:49:43 10° SSE
CZ-4C R/B 4.3 03:42:54 10° SSW 03:45:48 22° W 03:48:41 10° NW
IRIDIUM 106 4.4 03:41:00 10° NNW 03:46:07 56° W 03:51:13 10° SSW
Cosmos 1943 Rocket 4.5 03:44:25 10° NNW 03:47:55 16° N 03:51:24 10° NE
Cosmos 1536 2.8 03:45:03 10° NNW 03:49:09 80° W 03:53:13 10° S
SKYMED 2 4.3 03:45:11 10° SSE 03:49:26 58° ENE 03:53:44 10° N
Meteor 1-27 Rocket 4.3 03:44:03 10° S 03:49:56 69° E 03:55:49 10° NNE
Cosmos 1869 Rocket 4.0 03:46:05 10° NNW 03:50:09 39° W 03:54:11 10° SSW
SAR-Lupe-1 4.0 03:47:53 10° S 03:51:27 71° WSW 03:55:03 10° NNW
Resurs 1-4 Rocket 4.2 03:52:13 10° NNW 03:53:38 11° NW 03:55:04 10° NW
ATLAS 5 CENTAUR R/B 3.0 03:49:36 10° WNW 03:53:51 35° N 03:58:46 10° ENE
Cosmos 1484 Rocket 3.7 03:50:08 10° NNE 03:54:03 54° E 03:57:58 10° S
COSMOS 2455 4.2 03:49:54 10° NW 03:55:33 38° NNE 04:01:10 10° E
Meteor 1-4 Rocket 2.4 03:55:07 10° SSW 03:58:36 76° WNW 04:02:09 10° NNE
USA 305 3.3 03:58:51 10° WSW 04:02:58 58° SSE 04:07:10 10° E
X-37B 3.0 04:02:04 10° SW 04:03:25 12° S 04:04:47 10° SSE
Cosmos 2100 Rocket 4.0 03:58:25 10° NNW 04:04:48 73° W 04:11:08 10° S
Meteor 1-31 Rocket 3.5 04:01:04 10° NNE 04:04:51 56° E 04:08:37 10° S
Cosmos 1862 Rocket 4.5 04:01:13 10° S 04:05:30 54° E 04:09:46 10° NNE
Cosmos 1689 Rocket 2.0 04:02:54 10° SSE 04:05:52 83° WSW 04:08:53 10° NNW
SJ 16-02 2.3 04:02:21 10° NW 04:06:00 26° W 04:09:38 10° SSW
USA 306 3.2 04:02:50 10° WSW 04:07:02 60° SSE 04:11:14 10° E
Cosmos 1802 Rocket 4.0 04:00:58 10° NNW 04:07:11 86° W 04:13:25 10° S
PSLV R/B 3.7 04:03:15 10° N 04:07:22 50° WNW 04:11:25 10° SW
Cosmos 1763 Rocket 3.9 04:03:51 10° SSW 04:09:09 72° ESE 04:14:28 10° NNE
Cosmos 1727 Rocket 4.1 04:02:55 10° SSW 04:09:15 71° WNW 04:15:36 10° N
Cosmos 389 Rocket 3.8 04:06:24 10° WSW 04:09:17 23° WNW 04:12:11 10° N
Cosmos 2369 Rocket 4.4 04:09:00 10° NNW 04:12:41 17° N 04:16:21 10° NE
Cosmos 2360 Rocket 3.9 04:08:46 10° S 04:13:53 36° ESE 04:19:02 10° NE
CZ-2C R/B 2.7 04:09:58 10° N 04:14:54 54° WNW 04:19:55 10° SW
H-2A R/B 3.6 04:12:18 10° SW 04:15:16 17° W 04:18:16 10° NW
ERS-2 3.5 04:13:11 10° SW 04:15:55 20° W 04:18:39 10° NW
NOSS 3-4 (A) 3.9 04:11:00 10° NW 04:17:42 59° SW 04:25:08 10° SSE
NOSS 3-4 (C) 3.9 04:11:07 10° NW 04:17:48 59° SW 04:25:15 10° SSE
PAYLOAD A 4.2 04:13:59 10° N 04:18:29 44° WNW 04:22:55 10° SW
METEOR-M 4.5 04:13:51 10° NNE 04:19:15 73° ESE 04:24:36 10° S
Cosmos 1697 Rocket 3.5 04:14:56 10° WSW 04:20:03 35° NW 04:25:12 10° NNE
USA 267 3.4 04:15:17 10° ENE 04:21:51 83° N 04:28:25 10° W
FENGYUN 3A 3.8 04:17:09 10° NNE 04:22:36 88° ESE 04:28:01 10° SSW
